Location: Aufkirchen
(47.9603°N, 11.3653°E)
Time: 13:11:09
(UTC+01:00)

S-56A Canister/Altair - Visible Passes

Search period start: 30 November 2020 00:00
Search period end: 10 December 2020 00:00
Orbit: 633 x 2500 km, 38.9° (Epoch: 29 November)

Date Brightness Start Highest point End Pass type
(mag) Time Alt. Az. Time Alt. Az. Time Alt. Az.
30 Nov 10.4 17:44:16 10° SSW 17:53:41 24° SSE 18:00:07 13° ESE visible
30 Nov 9.5 19:47:28 10° SW 19:57:33 41° S 19:57:33 41° S visible
30 Nov 10.9 21:53:03 10° WSW 21:54:58 16° WSW 21:54:58 16° WSW visible
01 Dec 10.6 17:11:13 10° SSW 17:20:39 23° SSE 17:28:14 10° E visible
01 Dec 9.5 19:13:58 10° SW 19:25:01 41° SSE 19:26:40 38° SE visible
01 Dec 10.4 21:19:30 10° WSW 21:24:06 26° WSW 21:24:06 26° WSW visible
02 Dec 9.7 18:40:28 10° SW 18:52:00 40° SSE 18:55:47 30° ESE visible
02 Dec 9.9 20:45:55 10° WSW 20:53:12 37° SW 20:53:12 37° SW visible
03 Dec 10.0 18:07:01 10° SW 18:18:55 39° SSE 18:24:52 21° ESE visible
03 Dec 9.5 20:12:17 10° WSW 20:22:18 47° SSW 20:22:18 47° SSW visible
03 Dec 11.1 22:18:40 10° W 22:19:43 13° W 22:19:43 13° W visible
04 Dec 10.3 17:33:36 10° SW 17:45:47 38° SSE 17:53:57 14° E visible
04 Dec 9.3 19:38:39 10° WSW 19:50:27 50° S 19:51:22 49° SSE visible
04 Dec 10.7 21:45:02 10° W 21:48:48 22° WSW 21:48:48 22° WSW visible
05 Dec 10.5 17:00:16 10° SW 17:12:37 37° SSE 17:22:11 10° E visible
05 Dec 9.5 19:04:59 10° WSW 19:17:24 51° S 19:20:27 40° SE visible
05 Dec 10.2 21:11:22 10° W 21:17:52 32° WSW 21:17:52 32° WSW visible
06 Dec 9.8 18:31:21 10° WSW 18:44:17 51° S 18:49:31 29° ESE visible
06 Dec 9.7 20:37:40 10° W 20:46:56 43° SW 20:46:56 43° SW visible
07 Dec 10.0 17:57:45 10° WSW 18:11:05 51° S 18:18:35 20° ESE visible
07 Dec 9.5 20:03:56 10° W 20:15:49 50° SSW 20:16:01 50° S visible
07 Dec 11.0 22:10:59 10° W 22:13:26 16° W 22:13:26 16° W visible
08 Dec 10.2 17:24:11 10° SW 17:37:51 50° SSE 17:47:41 12° E visible
08 Dec 9.5 19:30:13 10° WSW 19:42:47 52° S 19:45:06 46° SSE visible
08 Dec 10.6 21:37:11 10° W 21:42:32 25° WSW 21:42:32 25° WSW visible
09 Dec 10.4 16:50:41 10° SW 17:04:33 49° SSE 17:15:22 10° E visible
09 Dec 9.7 18:56:29 10° WSW 19:09:40 54° S 19:14:13 35° SE visible
09 Dec 10.2 21:03:23 10° W 21:11:39 34° SW 21:11:39 34° SW visible
